WMT2020 LATI-LIMJ

Flight info

Callsign WMT2020
Flight time 1h 39m
Altitude 36000
Route DIRES DCT PAPIZ DCT LUMAR DCT BANAV DCT RUPAX DCT NUKNI DCT LOMED DCT RUXOL/N0377F180 M730 KALMO
Aircraft A320/M-SDE3FGHIRWY/LB1

Departure

Time 2026-04-21 17:53
Airport Tirana International Airport Mother Teresa (LATI)

Arrival

Time 2026-04-21 19:32
Airport Genoa Cristoforo Colombo Airport (LIMJ)
Time Latitude Longitude Altitude Speed Heading
2026-04-21 17:40 41.41910 19.71519 123 ft 0 kts 264°
2026-04-21 17:44 41.41911 19.71534 119 ft 3 kts 270°
2026-04-21 17:44 41.41909 19.71560 123 ft 3 kts 294°
2026-04-21 17:44 41.41898 19.71581 119 ft 3 kts 327°
2026-04-21 17:45 41.41883 19.71590 124 ft 1 kts 353°
2026-04-21 17:45 41.41881 19.71590 124 ft 0 kts 354°
2026-04-21 17:49 41.41882 19.71590 124 ft 0 kts 354°
2026-04-21 17:49 41.41892 19.71589 120 ft 3 kts 354°
2026-04-21 17:49 41.41900 19.71588 120 ft 3 kts 354°
2026-04-21 17:49 41.41955 19.71580 141 ft 14 kts 354°
2026-04-21 17:50 41.42080 19.71562 138 ft 20 kts 354°
2026-04-21 17:50 41.42228 19.71541 138 ft 23 kts 354°
2026-04-21 17:50 41.42394 19.71516 138 ft 25 kts 353°
2026-04-21 17:50 41.42565 19.71493 138 ft 25 kts 352°
2026-04-21 17:51 41.42671 19.71504 134 ft 9 kts 62°
2026-04-21 17:51 41.42670 19.71589 139 ft 10 kts 89°
2026-04-21 17:51 41.42675 19.71694 137 ft 12 kts 84°
2026-04-21 17:51 41.42684 19.71817 137 ft 14 kts 84°
2026-04-21 17:52 41.42634 19.71902 140 ft 15 kts 176°
2026-04-21 17:52 41.42419 19.71928 135 ft 60 kts 174°
2026-04-21 17:52 41.41790 19.72014 141 ft 119 kts 174°
2026-04-21 17:52 41.40813 19.72150 157 ft 162 kts 173°
2026-04-21 17:53 41.39673 19.72313 658 ft 164 kts 174°
2026-04-21 17:53 41.38532 19.72473 1303 ft 165 kts 174°
2026-04-21 17:53 41.37397 19.72643 1976 ft 163 kts 175°
2026-04-21 17:53 41.36228 19.72798 2388 ft 179 kts 177°
2026-04-21 17:54 41.34912 19.72958 2652 ft 201 kts 176°
2026-04-21 17:54 41.33952 19.73053 2834 ft 214 kts 182°
2026-04-21 17:54 41.32479 19.72515 3153 ft 233 kts 214°
2026-04-21 17:54 41.31325 19.70888 3628 ft 251 kts 234°
2026-04-21 17:55 41.30274 19.68968 4485 ft 255 kts 235°
2026-04-21 17:55 41.29226 19.67052 5393 ft 258 kts 236°
2026-04-21 17:55 41.28167 19.65120 6319 ft 258 kts 236°
2026-04-21 17:55 41.27102 19.63183 7144 ft 261 kts 236°
2026-04-21 17:56 41.26026 19.61226 8020 ft 263 kts 237°
2026-04-21 17:56 41.24939 19.59254 8869 ft 266 kts 237°
2026-04-21 17:56 41.23841 19.57264 9720 ft 269 kts 237°
2026-04-21 17:56 41.22723 19.55240 10366 ft 278 kts 238°
2026-04-21 17:57 41.21535 19.53079 10583 ft 301 kts 237°
2026-04-21 17:57 41.20255 19.50752 10845 ft 320 kts 237°
2026-04-21 17:57 41.18926 19.48351 11420 ft 326 kts 237°
2026-04-21 17:57 41.17568 19.45911 12096 ft 330 kts 237°
2026-04-21 17:58 41.16197 19.43452 12782 ft 333 kts 237°
2026-04-21 17:58 41.14814 19.40972 13455 ft 336 kts 237°
2026-04-21 17:58 41.13416 19.38466 14083 ft 339 kts 237°
2026-04-21 17:58 41.12007 19.35936 14671 ft 343 kts 237°
2026-04-21 17:59 41.10587 19.33384 15256 ft 346 kts 237°
2026-04-21 17:59 41.09157 19.30814 15838 ft 348 kts 237°
2026-04-21 17:59 41.07707 19.28216 16409 ft 351 kts 237°
2026-04-21 17:59 41.06250 19.25605 16984 ft 354 kts 238°
2026-04-21 18:00 41.04779 19.22967 17559 ft 358 kts 238°
2026-04-21 18:00 41.03294 19.20307 18125 ft 361 kts 238°
2026-04-21 18:00 41.01847 19.17583 18636 ft 361 kts 245°
2026-04-21 18:00 41.00965 19.14509 19133 ft 357 kts 262°
2026-04-21 18:01 41.00871 19.11254 19650 ft 355 kts 279°
2026-04-21 18:01 41.01582 19.08126 20163 ft 358 kts 295°
2026-04-21 18:01 41.02758 19.05214 20680 ft 360 kts 297°
2026-04-21 18:01 41.03957 19.02287 21187 ft 363 kts 297°
2026-04-21 18:02 41.05180 18.99299 21672 ft 365 kts 297°
2026-04-21 18:02 41.06389 18.96334 22138 ft 367 kts 297°
2026-04-21 18:02 41.07604 18.93344 22617 ft 370 kts 297°
2026-04-21 18:02 41.08824 18.90332 23085 ft 372 kts 297°
2026-04-21 18:03 41.10052 18.87298 23545 ft 374 kts 297°
2026-04-21 18:03 41.11286 18.84247 23945 ft 377 kts 297°
2026-04-21 18:03 41.12527 18.81180 24346 ft 379 kts 297°
2026-04-21 18:03 41.13776 18.78093 24744 ft 380 kts 297°
2026-04-21 18:04 41.15025 18.74998 25138 ft 381 kts 297°
2026-04-21 18:04 41.16275 18.71886 25547 ft 383 kts 297°
2026-04-21 18:04 41.17530 18.68760 25950 ft 384 kts 297°
2026-04-21 18:04 41.18785 18.65628 26335 ft 386 kts 297°
2026-04-21 18:05 41.20051 18.62477 26741 ft 387 kts 297°
2026-04-21 18:05 41.21320 18.59321 27130 ft 388 kts 297°
2026-04-21 18:05 41.22591 18.56153 27530 ft 390 kts 297°
2026-04-21 18:05 41.23866 18.52971 27924 ft 391 kts 297°
2026-04-21 18:06 41.25144 18.49774 28331 ft 392 kts 297°
2026-04-21 18:06 41.26424 18.46565 28722 ft 393 kts 297°
2026-04-21 18:06 41.27705 18.43350 29098 ft 395 kts 297°
2026-04-21 18:06 41.28986 18.40127 29605 ft 393 kts 297°
2026-04-21 18:07 41.30260 18.36921 30159 ft 390 kts 297°
2026-04-21 18:07 41.31525 18.33743 30615 ft 388 kts 297°
2026-04-21 18:07 41.32789 18.30567 31049 ft 387 kts 297°
2026-04-21 18:07 41.34045 18.27407 31473 ft 387 kts 297°
2026-04-21 18:08 41.35301 18.24239 31868 ft 387 kts 297°
2026-04-21 18:08 41.36554 18.21074 32292 ft 386 kts 297°
2026-04-21 18:08 41.37804 18.17914 32697 ft 386 kts 297°
2026-04-21 18:08 41.39052 18.14758 33119 ft 385 kts 296°
2026-04-21 18:09 41.40311 18.11559 33537 ft 385 kts 296°
2026-04-21 18:09 41.41537 18.08443 33937 ft 384 kts 296°
2026-04-21 18:09 41.42792 18.05253 34287 ft 384 kts 296°
2026-04-21 18:09 41.44034 18.02100 34604 ft 384 kts 296°
2026-04-21 18:10 41.45273 17.98952 34911 ft 384 kts 296°
2026-04-21 18:10 41.46512 17.95794 35211 ft 384 kts 296°
2026-04-21 18:10 41.47752 17.92632 35501 ft 384 kts 296°
2026-04-21 18:10 41.48987 17.89473 35809 ft 384 kts 296°
2026-04-21 18:11 41.50225 17.86303 35924 ft 386 kts 296°
2026-04-21 18:11 41.51474 17.83103 35953 ft 392 kts 296°
2026-04-21 18:11 41.54000 17.76627 35949 ft 394 kts 296°
2026-04-21 18:12 41.56532 17.70131 35950 ft 394 kts 296°
2026-04-21 18:12 41.59056 17.63627 35952 ft 394 kts 296°
2026-04-21 18:13 41.61546 17.57108 35957 ft 394 kts 292°
2026-04-21 18:13 41.63120 17.50111 35953 ft 394 kts 285°
2026-04-21 18:14 41.65260 17.39511 35952 ft 394 kts 285°
2026-04-21 18:15 41.66679 17.32434 35953 ft 394 kts 285°
2026-04-21 18:15 41.68085 17.25342 35952 ft 394 kts 285°
2026-04-21 18:16 41.69487 17.18251 35954 ft 394 kts 285°
2026-04-21 18:16 41.70888 17.11159 35953 ft 394 kts 285°
2026-04-21 18:17 41.72281 17.04054 35956 ft 394 kts 285°
2026-04-21 18:17 41.74346 16.97222 35955 ft 395 kts 296°
2026-04-21 18:18 41.76850 16.90682 35960 ft 395 kts 296°
2026-04-21 18:18 41.79337 16.84128 35964 ft 395 kts 296°
2026-04-21 18:19 41.81820 16.77563 35962 ft 395 kts 296°
2026-04-21 18:19 41.84299 16.70995 35963 ft 395 kts 296°
2026-04-21 18:20 41.86776 16.64429 35965 ft 395 kts 296°
2026-04-21 18:20 41.89260 16.57862 35966 ft 394 kts 296°
2026-04-21 18:21 41.91734 16.51290 35971 ft 394 kts 295°
2026-04-21 18:21 41.94194 16.44705 35969 ft 394 kts 295°
2026-04-21 18:22 41.96651 16.38118 35973 ft 394 kts 295°
2026-04-21 18:22 41.99113 16.31538 35970 ft 394 kts 295°
2026-04-21 18:23 42.01569 16.24943 35971 ft 394 kts 295°
2026-04-21 18:23 42.04016 16.18341 35966 ft 394 kts 295°
2026-04-21 18:24 42.06458 16.11739 35964 ft 394 kts 295°
2026-04-21 18:24 42.08903 16.05129 35965 ft 394 kts 295°
2026-04-21 18:25 42.11357 15.98474 35966 ft 394 kts 295°
2026-04-21 18:25 42.13795 15.91866 35966 ft 394 kts 295°
2026-04-21 18:26 42.16224 15.85243 35971 ft 394 kts 295°
2026-04-21 18:26 42.18239 15.79741 35970 ft 394 kts 295°
2026-04-21 18:27 42.20663 15.73118 35975 ft 394 kts 295°
2026-04-21 18:27 42.23076 15.66493 35976 ft 394 kts 295°
2026-04-21 18:28 42.25487 15.59862 35977 ft 393 kts 295°
2026-04-21 18:28 42.27902 15.53230 35979 ft 393 kts 295°
2026-04-21 18:29 42.30299 15.46592 35982 ft 393 kts 295°
2026-04-21 18:29 42.32866 15.40058 35982 ft 394 kts 298°
2026-04-21 18:30 42.35600 15.33585 35982 ft 394 kts 298°
2026-04-21 18:30 42.38278 15.27175 35987 ft 394 kts 297°
2026-04-21 18:31 42.40937 15.20644 35986 ft 394 kts 297°
2026-04-21 18:31 42.43569 15.14149 35987 ft 394 kts 297°
2026-04-21 18:32 42.46211 15.07651 35998 ft 394 kts 297°
2026-04-21 18:32 42.48843 15.01153 36000 ft 393 kts 297°
2026-04-21 18:33 42.51465 14.94647 36001 ft 393 kts 297°
2026-04-21 18:33 42.54082 14.88141 36007 ft 393 kts 297°
2026-04-21 18:34 42.56698 14.81634 36005 ft 393 kts 297°
2026-04-21 18:34 42.59308 14.75128 36009 ft 392 kts 297°
2026-04-21 18:35 42.61477 14.69724 36014 ft 392 kts 297°
2026-04-21 18:35 42.64518 14.62126 36014 ft 392 kts 297°
2026-04-21 18:36 42.67107 14.55617 36016 ft 391 kts 297°
2026-04-21 18:36 42.69046 14.50727 36021 ft 391 kts 297°
2026-04-21 18:37 42.71625 14.44223 36021 ft 390 kts 297°
2026-04-21 18:37 42.74199 14.37732 36027 ft 390 kts 297°
2026-04-21 18:38 42.76781 14.31191 36025 ft 389 kts 297°
2026-04-21 18:38 42.79341 14.24702 36023 ft 389 kts 297°
2026-04-21 18:39 42.81893 14.18211 36026 ft 389 kts 297°
2026-04-21 18:39 42.84439 14.11713 36025 ft 388 kts 297°
2026-04-21 18:40 42.86977 14.05224 36021 ft 388 kts 297°
2026-04-21 18:40 42.89085 13.99831 36023 ft 388 kts 297°
2026-04-21 18:41 42.92049 13.92243 36024 ft 388 kts 297°
2026-04-21 18:41 42.94573 13.85743 36024 ft 387 kts 297°
2026-04-21 18:42 42.97085 13.79241 36025 ft 388 kts 297°
2026-04-21 18:42 42.99602 13.72731 36029 ft 388 kts 297°
2026-04-21 18:43 43.02122 13.66227 36031 ft 387 kts 297°
2026-04-21 18:43 43.04637 13.59717 36032 ft 387 kts 297°
2026-04-21 18:44 43.07145 13.53205 36030 ft 387 kts 297°
2026-04-21 18:44 43.09640 13.46685 36030 ft 387 kts 296°
2026-04-21 18:45 43.12132 13.40162 36030 ft 387 kts 296°
2026-04-21 18:45 43.14619 13.33638 36029 ft 387 kts 296°
2026-04-21 18:46 43.17123 13.27064 36026 ft 387 kts 296°
2026-04-21 18:46 43.19610 13.20530 36025 ft 387 kts 296°
2026-04-21 18:47 43.22092 13.13993 36027 ft 386 kts 296°
2026-04-21 18:47 43.24567 13.07450 36023 ft 386 kts 296°
2026-04-21 18:48 43.27032 13.00901 36024 ft 386 kts 296°
2026-04-21 18:48 43.29498 12.94347 36024 ft 386 kts 296°
2026-04-21 18:49 43.31958 12.87793 36019 ft 387 kts 296°
2026-04-21 18:49 43.34007 12.82330 36016 ft 387 kts 296°
2026-04-21 18:50 43.36885 12.74654 36018 ft 387 kts 296°
2026-04-21 18:50 43.39337 12.68077 36014 ft 387 kts 296°
2026-04-21 18:51 43.41782 12.61501 36015 ft 386 kts 296°
2026-04-21 18:51 43.44229 12.54915 36021 ft 386 kts 296°
2026-04-21 18:52 43.46669 12.48327 36021 ft 386 kts 296°
2026-04-21 18:52 43.49105 12.41734 36021 ft 386 kts 296°
2026-04-21 18:53 43.51536 12.35131 36021 ft 386 kts 296°
2026-04-21 18:53 43.53974 12.28477 36019 ft 386 kts 296°
2026-04-21 18:54 43.56403 12.21867 36019 ft 386 kts 296°
2026-04-21 18:54 43.58831 12.15257 36019 ft 386 kts 296°
2026-04-21 18:55 43.60843 12.09759 36021 ft 386 kts 296°
2026-04-21 18:55 43.63660 12.02021 36016 ft 386 kts 296°
2026-04-21 18:56 43.66067 11.95388 36013 ft 386 kts 296°
2026-04-21 18:56 43.68470 11.88763 36011 ft 386 kts 296°
2026-04-21 18:57 43.70867 11.82122 36010 ft 386 kts 296°
2026-04-21 18:57 43.73261 11.75478 36008 ft 386 kts 296°
2026-04-21 18:58 43.75647 11.68835 35998 ft 386 kts 296°
2026-04-21 18:58 43.78038 11.62194 35996 ft 386 kts 296°
2026-04-21 18:59 43.80425 11.55543 35988 ft 386 kts 296°
2026-04-21 18:59 43.82974 11.49003 35982 ft 386 kts 299°
2026-04-21 19:00 43.85662 11.42561 35976 ft 386 kts 299°
2026-04-21 19:00 43.87908 11.37165 35971 ft 386 kts 299°
2026-04-21 19:01 43.90545 11.30691 35969 ft 386 kts 298°
2026-04-21 19:01 43.93161 11.24190 35692 ft 385 kts 298°
2026-04-21 19:01 43.94463 11.20952 35446 ft 384 kts 298°
2026-04-21 19:02 43.95765 11.17713 35199 ft 384 kts 298°
2026-04-21 19:02 43.97064 11.14477 34954 ft 383 kts 298°
2026-04-21 19:02 43.98357 11.11249 34718 ft 382 kts 298°
2026-04-21 19:02 43.99645 11.08033 34482 ft 381 kts 298°
2026-04-21 19:03 44.00934 11.04814 34252 ft 381 kts 298°
2026-04-21 19:03 44.02191 11.01581 34030 ft 380 kts 295°
2026-04-21 19:03 44.03191 10.98177 33768 ft 381 kts 289°
2026-04-21 19:03 44.03959 10.94652 33498 ft 381 kts 288°
2026-04-21 19:04 44.04718 10.91123 33225 ft 381 kts 288°
2026-04-21 19:04 44.05481 10.87594 32952 ft 379 kts 288°
2026-04-21 19:04 44.06230 10.84126 32707 ft 370 kts 288°
2026-04-21 19:04 44.06965 10.80703 32488 ft 359 kts 288°
2026-04-21 19:05 44.07665 10.77428 32360 ft 347 kts 288°
2026-04-21 19:05 44.08342 10.74259 32214 ft 337 kts 288°
2026-04-21 19:05 44.09003 10.71164 31965 ft 329 kts 288°
2026-04-21 19:05 44.09644 10.68160 31828 ft 320 kts 288°
2026-04-21 19:06 44.10270 10.65229 31701 ft 311 kts 288°
2026-04-21 19:06 44.10877 10.62384 31571 ft 302 kts 288°
2026-04-21 19:06 44.11465 10.59617 31424 ft 294 kts 288°
2026-04-21 19:06 44.12037 10.56921 31207 ft 288 kts 288°
2026-04-21 19:07 44.12597 10.54256 30913 ft 285 kts 288°
2026-04-21 19:07 44.13156 10.51580 30241 ft 290 kts 288°
2026-04-21 19:07 44.13711 10.48912 29755 ft 287 kts 288°
2026-04-21 19:07 44.14272 10.46215 28862 ft 290 kts 287°
2026-04-21 19:08 44.14829 10.43528 28192 ft 287 kts 288°
2026-04-21 19:08 44.15375 10.40881 27564 ft 283 kts 288°
2026-04-21 19:08 44.15915 10.38270 26964 ft 278 kts 288°
2026-04-21 19:08 44.16448 10.35699 26384 ft 274 kts 288°
2026-04-21 19:09 44.16973 10.33171 25827 ft 270 kts 288°
2026-04-21 19:09 44.17495 10.30683 25291 ft 265 kts 288°
2026-04-21 19:09 44.18010 10.28235 24888 ft 261 kts 288°
2026-04-21 19:09 44.18512 10.25831 24504 ft 256 kts 288°
2026-04-21 19:10 44.19006 10.23457 24123 ft 254 kts 288°
2026-04-21 19:10 44.19498 10.21101 23746 ft 253 kts 288°
2026-04-21 19:10 44.19988 10.18757 23340 ft 251 kts 288°
2026-04-21 19:10 44.20480 10.16400 22889 ft 249 kts 288°
2026-04-21 19:11 44.20962 10.14084 22434 ft 248 kts 288°
2026-04-21 19:11 44.21439 10.11791 21964 ft 246 kts 288°
2026-04-21 19:11 44.21914 10.09502 21546 ft 245 kts 288°
2026-04-21 19:11 44.22387 10.07227 21146 ft 244 kts 288°
2026-04-21 19:12 44.22855 10.04964 20734 ft 242 kts 288°
2026-04-21 19:12 44.23320 10.02709 20337 ft 241 kts 288°
2026-04-21 19:12 44.23780 10.00479 20044 ft 236 kts 288°
2026-04-21 19:12 44.24225 9.98322 19839 ft 228 kts 288°
2026-04-21 19:13 44.24658 9.96216 19522 ft 225 kts 288°
2026-04-21 19:13 44.25087 9.94127 19190 ft 223 kts 288°
2026-04-21 19:13 44.25516 9.92051 18829 ft 222 kts 288°
2026-04-21 19:13 44.25942 9.89988 18456 ft 221 kts 289°
2026-04-21 19:14 44.26366 9.87930 18070 ft 220 kts 288°
2026-04-21 19:14 44.26785 9.85875 17640 ft 219 kts 288°
2026-04-21 19:14 44.27201 9.83832 17217 ft 219 kts 288°
2026-04-21 19:14 44.27618 9.81790 16817 ft 219 kts 288°
2026-04-21 19:15 44.28037 9.79749 16428 ft 219 kts 288°
2026-04-21 19:15 44.28455 9.77702 16069 ft 219 kts 288°
2026-04-21 19:15 44.28840 9.75814 15728 ft 216 kts 287°
2026-04-21 19:15 44.29251 9.73804 15415 ft 215 kts 287°
2026-04-21 19:16 44.29660 9.71801 15090 ft 214 kts 288°
2026-04-21 19:16 44.30067 9.69799 14738 ft 214 kts 287°
2026-04-21 19:16 44.30478 9.67772 14423 ft 214 kts 287°
2026-04-21 19:16 44.30883 9.65777 14154 ft 216 kts 287°
2026-04-21 19:17 44.31712 9.61692 13675 ft 219 kts 287°
2026-04-21 19:17 44.32122 9.59656 13403 ft 220 kts 287°
2026-04-21 19:17 44.32552 9.57597 13126 ft 219 kts 288°
2026-04-21 19:18 44.33001 9.55566 12853 ft 219 kts 288°
2026-04-21 19:18 44.33459 9.53532 12599 ft 219 kts 288°
2026-04-21 19:18 44.33734 9.51448 12335 ft 221 kts 270°
2026-04-21 19:18 44.33364 9.49345 12077 ft 228 kts 246°
2026-04-21 19:19 44.32345 9.47611 11823 ft 237 kts 224°
2026-04-21 19:19 44.31030 9.46209 11588 ft 239 kts 223°
2026-04-21 19:19 44.29688 9.44823 11286 ft 242 kts 216°
2026-04-21 19:19 44.28074 9.44048 11006 ft 252 kts 188°
2026-04-21 19:20 44.26325 9.44365 10682 ft 261 kts 160°
2026-04-21 19:20 44.24767 9.45717 10327 ft 268 kts 144°
2026-04-21 19:20 44.23256 9.47260 9948 ft 271 kts 151°
2026-04-21 19:20 44.21482 9.47959 9562 ft 266 kts 186°
2026-04-21 19:21 44.19787 9.47160 9261 ft 255 kts 220°
2026-04-21 19:21 44.18644 9.45344 9020 ft 247 kts 237°
2026-04-21 19:21 44.17614 9.43395 8758 ft 245 kts 236°
2026-04-21 19:21 44.16587 9.41510 8502 ft 242 kts 238°
2026-04-21 19:22 44.16028 9.39391 8330 ft 230 kts 271°
2026-04-21 19:22 44.16452 9.37331 8196 ft 220 kts 305°
2026-04-21 19:22 44.17548 9.35912 8068 ft 213 kts 322°
2026-04-21 19:22 44.18711 9.34687 7931 ft 207 kts 322°
2026-04-21 19:23 44.19851 9.33489 7699 ft 205 kts 322°
2026-04-21 19:23 44.20988 9.32293 7438 ft 205 kts 322°
2026-04-21 19:23 44.22123 9.31100 7183 ft 204 kts 322°
2026-04-21 19:23 44.23257 9.29903 6932 ft 204 kts 322°
2026-04-21 19:24 44.24392 9.28704 6671 ft 204 kts 322°
2026-04-21 19:24 44.25523 9.27508 6462 ft 204 kts 322°
2026-04-21 19:24 44.26657 9.26307 6290 ft 205 kts 322°
2026-04-21 19:24 44.27782 9.25116 6123 ft 199 kts 322°
2026-04-21 19:25 44.28858 9.23978 5918 ft 190 kts 322°
2026-04-21 19:25 44.29898 9.22879 5669 ft 185 kts 322°
2026-04-21 19:25 44.30916 9.21802 5436 ft 183 kts 323°
2026-04-21 19:25 44.31928 9.20732 5226 ft 183 kts 323°
2026-04-21 19:26 44.32917 9.19651 5003 ft 178 kts 316°
2026-04-21 19:26 44.33661 9.18311 4832 ft 172 kts 297°
2026-04-21 19:26 44.34136 9.16770 4716 ft 173 kts 290°
2026-04-21 19:26 44.34527 9.15184 4515 ft 172 kts 288°
2026-04-21 19:27 44.34890 9.13590 4279 ft 172 kts 287°
2026-04-21 19:27 44.35246 9.11978 4039 ft 171 kts 287°
2026-04-21 19:27 44.35593 9.10391 3799 ft 171 kts 287°
2026-04-21 19:27 44.35937 9.08808 3561 ft 170 kts 287°
2026-04-21 19:28 44.36280 9.07229 3324 ft 170 kts 287°
2026-04-21 19:28 44.36622 9.05653 3084 ft 169 kts 287°
2026-04-21 19:28 44.36962 9.04084 2849 ft 169 kts 287°
2026-04-21 19:28 44.37302 9.02517 2610 ft 168 kts 287°
2026-04-21 19:29 44.37639 9.00958 2377 ft 167 kts 287°
2026-04-21 19:29 44.37975 8.99402 2139 ft 167 kts 287°
2026-04-21 19:29 44.38310 8.97853 1899 ft 166 kts 287°
2026-04-21 19:29 44.38644 8.96308 1669 ft 166 kts 287°
2026-04-21 19:30 44.38973 8.94783 1436 ft 159 kts 287°
2026-04-21 19:30 44.39282 8.93349 1223 ft 148 kts 287°
2026-04-21 19:30 44.39575 8.91990 1006 ft 144 kts 287°
2026-04-21 19:30 44.39860 8.90663 801 ft 142 kts 286°
2026-04-21 19:31 44.40149 8.89351 653 ft 142 kts 287°
2026-04-21 19:31 44.40441 8.88038 430 ft 141 kts 285°
2026-04-21 19:31 44.40690 8.86711 228 ft 141 kts 284°
2026-04-21 19:31 44.40854 8.85916 98 ft 141 kts 285°
2026-04-21 19:32 44.41019 8.85074 19 ft 132 kts 284°
2026-04-21 19:32 44.41188 8.84191 22 ft 64 kts 287°
2026-04-21 19:32 44.41289 8.83811 20 ft 25 kts 326°
2026-04-21 19:32 44.41382 8.83742 20 ft 9 kts 13°
2026-04-21 19:33 44.41398 8.83755 20 ft 0 kts 31°
2026-04-21 19:33 44.41412 8.83768 21 ft 4 kts 43°
2026-04-21 19:33 44.41419 8.83831 20 ft 9 kts 100°
2026-04-21 19:33 44.41391 8.83960 20 ft 17 kts 104°
2026-04-21 19:34 44.41356 8.84142 22 ft 22 kts 104°
2026-04-21 19:34 44.41319 8.84361 20 ft 16 kts 104°
2026-04-21 19:34 44.41365 8.84493 20 ft 17 kts 50°
2026-04-21 19:34 44.41437 8.84642 20 ft 20 kts 58°
2026-04-21 19:35 44.41480 8.84711 20 ft 2 kts 47°
2026-04-21 19:35 44.41536 8.84808 20 ft 12 kts 52°
2026-04-21 19:35 44.41548 8.84907 20 ft 6 kts 104°
2026-04-21 19:36 44.41540 8.84946 21 ft 3 kts 106°
2026-04-21 19:36 44.41538 8.84957 20 ft 0 kts 105°